,,PressureMeas_1m,,PRMeasQMR101_1,,RHStat155_1m_1,,SRMeasQMS101R_1m,,TAStat155_1m_1,,GenWind_1,,GenWind_1,
2018-05-08, 07:00:06,VALID,917.654,VALID,0.0,VALID,88.548,VALID,78.77,VALID,21.364,VALID,152.0,VALID,0.565,
2018-05-08, 07:01:06,VALID,917.655,VALID,0.0,VALID,88.649,VALID,91.991,VALID,21.357,VALID,139.0,VALID,0.521,
2018-05-08, 07:02:06,VALID,917.686,VALID,0.0,VALID,89.863,VALID,102.339,VALID,21.301,VALID,74.0,VALID,0.806,
2018-05-08, 07:03:06,VALID,917.713,VALID,0.0,VALID,89.799,VALID,106.055,VALID,21.23,INVALID,360.0,VALID,0.8,
2018-05-08, 07:04:06,VALID,917.739,VALID,0.0,VALID,88.782,VALID,72.323,VALID,21.289,VALID,169.0,VALID,1.343,
2018-05-08, 07:05:06,VALID,917.756,VALID,0.0,VALID,88.372,VALID,112.426,VALID,21.416,VALID,170.0,VALID,1.29,
2018-05-08, 07:06:06,VALID,917.77,VALID,0.0,VALID,88.219,VALID,129.072,VALID,21.45,VALID,146.0,VALID,1.048,
2018-05-08, 07:07:06,VALID,917.749,VALID,0.0,VALID,87.926,VALID,127.63,VALID,21.502,VALID,178.0,VALID,1.047,
2018-05-08, 07:08:06,VALID,917.767,VALID,0.0,VALID,88.149,VALID,125.49,VALID,21.533,VALID,163.0,VALID,0.657,
2018-05-08, 07:09:06,VALID,917.784,VALID,0.0,VALID,88.062,VALID,127.212,VALID,21.545,VALID,114.0,VALID,1.11,
2018-05-08, 07:10:06,VALID,917.778,VALID,0.0,VALID,88.167,VALID,132.38,VALID,21.596,VALID,134.0,VALID,0.441,
2018-05-08, 07:11:06,VALID,917.77,VALID,0.0,VALID,87.516,VALID,137.406,VALID,21.624,VALID,158.0,VALID,1.095,
2018-05-08, 07:12:06,VALID,917.802,VALID,0.0,VALID,87.46,VALID,140.958,VALID,21.672,VALID,132.0,VALID,0.354,
2018-05-08, 07:13:06,VALID,917.828,VALID,0.0,VALID,86.548,VALID,144.159,VALID,21.736,VALID,159.0,VALID,1.207,
2018-05-08, 07:14:06,VALID,917.822,VALID,0.0,VALID,87.021,VALID,148.611,VALID,21.761,VALID,164.0,VALID,0.915,
2018-05-08, 07:15:06,VALID,917.808,VALID,0.0,VALID,87.965,VALID,151.647,VALID,21.727,VALID,172.0,VALID,0.628,
2018-05-08, 07:16:06,VALID,917.803,VALID,0.0,VALID,88.21,VALID,149.624,VALID,21.681,VALID,166.0,VALID,0.958,
2018-05-08, 07:17:06,VALID,917.808,VALID,0.0,VALID,88.846,VALID,143.243,VALID,21.648,VALID,139.0,VALID,0.375,
2018-05-08, 07:18:06,VALID,917.814,VALID,0.0,VALID,89.179,VALID,137.624,VALID,21.641,VALID,140.0,VALID,1.059,
2018-05-08, 07:19:06,VALID,917.805,VALID,0.0,VALID,87.62,VALID,140.032,VALID,21.664,VALID,157.0,VALID,1.175,
2018-05-08, 07:20:06,VALID,917.805,VALID,0.0,VALID,88.003,VALID,145.643,VALID,21.687,VALID,147.0,VALID,1.009,
2018-05-08, 07:21:06,VALID,917.822,VALID,0.0,VALID,88.056,VALID,151.945,VALID,21.704,VALID,134.0,VALID,0.189,
2018-05-08, 07:22:06,VALID,917.816,VALID,0.0,VALID,88.293,VALID,159.208,VALID,21.708,INVALID,360.0,VALID,0.248,
2018-05-08, 07:23:06,VALID,917.811,VALID,0.0,VALID,88.403,VALID,168.318,VALID,21.752,VALID,173.0,VALID,0.606,
2018-05-08, 07:24:06,VALID,917.812,VALID,0.0,VALID,86.883,VALID,175.154,VALID,21.804,VALID,155.0,VALID,0.955,
2018-05-08, 07:25:06,VALID,917.829,VALID,0.0,VALID,87.338,VALID,176.026,VALID,21.876,VALID,141.0,VALID,0.645,
2018-05-08, 07:26:06,VALID,917.828,VALID,0.0,VALID,87.106,VALID,176.389,VALID,21.926,VALID,162.0,VALID,1.124,
2018-05-08, 07:27:06,VALID,917.831,VALID,0.0,VALID,86.25,VALID,183.615,VALID,21.964,VALID,156.0,VALID,1.411,
2018-05-08, 07:28:06,VALID,917.843,VALID,0.0,VALID,86.88,VALID,195.906,VALID,21.97,VALID,147.0,VALID,1.002,
2018-05-08, 07:29:06,VALID,917.828,VALID,0.0,VALID,86.587,VALID,207.42,VALID,21.983,VALID,151.0,VALID,1.311,
2018-05-08, 07:30:06,VALID,917.836,VALID,0.0,VALID,86.989,VALID,216.402,VALID,21.997,VALID,156.0,VALID,1.117,
2018-05-08, 07:31:06,VALID,917.805,VALID,0.0,VALID,87.222,VALID,222.746,VALID,21.997,VALID,164.0,VALID,0.741,
2018-05-08, 07:32:06,VALID,917.802,VALID,0.0,VALID,86.647,VALID,230.509,VALID,22.002,VALID,148.0,VALID,0.784,
2018-05-08, 07:33:06,VALID,917.815,VALID,0.0,VALID,87.345,VALID,236.405,VALID,22.06,VALID,159.0,VALID,0.717,
2018-05-08, 07:34:06,VALID,917.805,VALID,0.0,VALID,85.395,VALID,242.993,VALID,22.11,VALID,157.0,VALID,1.171,
2018-05-08, 07:35:06,VALID,917.829,VALID,0.0,VALID,86.134,VALID,247.245,VALID,22.186,VALID,108.0,VALID,0.661,
2018-05-08, 07:36:06,VALID,917.834,VALID,0.0,VALID,87.144,VALID,252.306,VALID,22.355,VALID,140.0,VALID,0.65,
2018-05-08, 07:37:06,VALID,917.84,VALID,0.0,VALID,85.533,VALID,255.623,VALID,22.47,INVALID,360.0,VALID,0.094,
2018-05-08, 07:38:06,VALID,917.848,VALID,0.0,VALID,84.295,VALID,257.824,VALID,22.489,VALID,147.0,VALID,0.498,
2018-05-08, 07:39:06,VALID,917.873,VALID,0.0,VALID,84.174,VALID,262.032,VALID,22.564,VALID,144.0,VALID,0.276,
2018-05-08, 07:40:06,VALID,917.894,VALID,0.0,VALID,84.121,VALID,266.853,VALID,22.669,VALID,102.0,VALID,0.254,
2018-05-08, 07:41:06,VALID,917.915,VALID,0.0,VALID,84.585,VALID,272.729,VALID,22.789,VALID,165.0,VALID,0.455,
2018-05-08, 07:42:06,VALID,917.896,VALID,0.0,VALID,83.141,VALID,279.238,VALID,22.833,VALID,151.0,VALID,1.13,
2018-05-08, 07:43:06,VALID,917.919,VALID,0.0,VALID,83.013,VALID,284.243,VALID,22.808,VALID,94.0,VALID,1.045,
2018-05-08, 07:44:06,VALID,917.923,VALID,0.0,VALID,83.725,VALID,287.74,VALID,22.908,VALID,55.0,VALID,1.096,
2018-05-08, 07:45:06,VALID,917.93,VALID,0.0,VALID,83.02,VALID,290.3,VALID,23.092,VALID,23.0,VALID,0.978,
2018-05-08, 07:46:06,VALID,917.928,VALID,0.0,VALID,82.605,VALID,286.78,VALID,23.213,VALID,26.0,VALID,0.89,
2018-05-08, 07:47:06,VALID,917.919,VALID,0.0,VALID,81.561,VALID,288.242,VALID,23.238,VALID,24.0,VALID,0.359,
2018-05-08, 07:48:06,VALID,917.922,VALID,0.0,VALID,80.468,VALID,294.419,VALID,23.229,VALID,96.0,VALID,1.248,
2018-05-08, 07:49:06,VALID,917.934,VALID,0.0,VALID,80.184,VALID,301.018,VALID,23.184,VALID,102.0,VALID,0.873,
2018-05-08, 07:50:06,VALID,917.878,VALID,0.0,VALID,79.596,VALID,304.22,VALID,23.097,VALID,278.0,VALID,1.624,
2018-05-08, 07:51:06,VALID,917.911,VALID,0.0,VALID,80.704,VALID,305.062,VALID,23.114,INVALID,360.0,VALID,0.089,
2018-05-08, 07:52:06,VALID,917.939,VALID,0.0,VALID,81.06,VALID,304.855,VALID,23.247,INVALID,360.0,VALID,0.416,
2018-05-08, 07:53:06,VALID,917.931,VALID,0.0,VALID,80.801,VALID,307.872,VALID,23.22,VALID,167.0,VALID,0.586,
2018-05-08, 07:54:06,VALID,917.919,VALID,0.0,VALID,81.108,VALID,317.915,VALID,23.091,VALID,224.0,VALID,1.11,
2018-05-08, 07:55:06,VALID,917.932,VALID,0.0,VALID,82.011,VALID,321.789,VALID,22.96,VALID,177.0,VALID,0.706,
2018-05-08, 07:56:06,VALID,917.945,VALID,0.0,VALID,82.532,VALID,327.708,VALID,22.97,VALID,225.0,VALID,0.312,
2018-05-08, 07:57:06,VALID,917.967,VALID,0.0,VALID,83.41,VALID,333.357,VALID,22.998,VALID,260.0,VALID,0.262,
2018-05-08, 07:58:06,VALID,917.993,VALID,0.0,VALID,83.49,VALID,341.685,VALID,23.048,INVALID,360.0,VALID,0.042,
2018-05-08, 07:59:06,VALID,917.991,VALID,0.0,VALID,81.692,VALID,354.149,VALID,23.16,INVALID,360.0,VALID,0.109,
2018-05-08, 08:00:06,VALID,918.0,VALID,0.0,VALID,82.492,VALID,361.853,VALID,23.311,VALID,63.0,VALID,0.377,
2018-05-08, 08:01:06,VALID,918.0,VALID,0.0,VALID,79.59,VALID,366.719,VALID,23.473,VALID,150.0,VALID,0.393,
2018-05-08, 08:02:06,VALID,917.992,VALID,0.0,VALID,79.226,VALID,374.383,VALID,23.575,VALID,169.0,VALID,1.027,
2018-05-08, 08:03:06,VALID,918.025,VALID,0.0,VALID,78.141,VALID,381.679,VALID,23.709,VALID,111.0,VALID,2.563,
2018-05-08, 08:04:06,VALID,918.044,VALID,0.0,VALID,78.149,VALID,386.898,VALID,23.635,VALID,84.0,VALID,2.175,
2018-05-08, 08:05:06,VALID,918.008,VALID,0.0,VALID,79.043,VALID,386.396,VALID,23.518,VALID,34.0,VALID,0.76,
2018-05-08, 08:06:06,VALID,918.02,VALID,0.0,VALID,78.745,VALID,386.765,VALID,23.63,VALID,156.0,VALID,1.321,
2018-05-08, 08:07:06,VALID,918.023,VALID,0.0,VALID,77.747,VALID,391.616,VALID,23.663,VALID,86.0,VALID,0.801,
2018-05-08, 08:08:06,VALID,918.032,VALID,0.0,VALID,78.88,VALID,393.969,VALID,23.805,VALID,107.0,VALID,0.398,
2018-05-08, 08:09:06,VALID,918.034,VALID,0.0,VALID,79.019,VALID,395.56,VALID,24.064,VALID,90.0,VALID,0.738,
2018-05-08, 08:10:06,VALID,918.048,VALID,0.0,VALID,78.442,VALID,393.999,VALID,24.221,VALID,115.0,VALID,1.038,
2018-05-08, 08:11:06,VALID,918.058,VALID,0.0,VALID,77.486,VALID,380.395,VALID,24.266,VALID,109.0,VALID,1.678,
2018-05-08, 08:12:06,VALID,918.028,VALID,0.0,VALID,75.053,VALID,375.999,VALID,24.196,VALID,90.0,VALID,3.002,
2018-05-08, 08:13:06,VALID,918.012,VALID,0.0,VALID,75.963,VALID,381.995,VALID,24.032,VALID,86.0,VALID,2.338,
2018-05-08, 08:14:06,VALID,918.001,VALID,0.0,VALID,78.844,VALID,395.494,VALID,23.933,VALID,46.0,VALID,1.661,
2018-05-08, 08:15:06,VALID,918.017,VALID,0.0,VALID,78.787,VALID,406.678,VALID,24.005,VALID,99.0,VALID,1.388,
2018-05-08, 08:16:06,VALID,918.023,VALID,0.0,VALID,77.25,VALID,414.57,VALID,24.106,VALID,99.0,VALID,2.082,
2018-05-08, 08:17:06,VALID,918.036,VALID,0.0,VALID,78.369,VALID,420.384,VALID,24.084,VALID,96.0,VALID,1.62,
2018-05-08, 08:18:06,VALID,918.058,VALID,0.0,VALID,77.914,VALID,423.766,VALID,24.083,VALID,148.0,VALID,1.857,
2018-05-08, 08:19:06,VALID,918.05,VALID,0.0,VALID,77.274,VALID,418.703,VALID,24.073,VALID,162.0,VALID,1.228,
2018-05-08, 08:20:06,VALID,918.051,VALID,0.0,VALID,77.073,VALID,411.319,VALID,24.023,VALID,108.0,VALID,1.411,
2018-05-08, 08:21:06,VALID,918.087,VALID,0.0,VALID,79.127,VALID,415.413,VALID,24.079,VALID,106.0,VALID,1.444,
2018-05-08, 08:22:06,VALID,918.088,VALID,0.0,VALID,78.01,VALID,415.975,VALID,24.215,VALID,138.0,VALID,0.732,
2018-05-08, 08:23:06,VALID,918.077,VALID,0.0,VALID,76.798,VALID,414.66,VALID,24.34,VALID,148.0,VALID,1.111,
2018-05-08, 08:24:06,VALID,918.062,VALID,0.0,VALID,76.197,VALID,416.132,VALID,24.323,VALID,101.0,VALID,1.769,
2018-05-08, 08:25:06,VALID,918.106,VALID,0.0,VALID,76.538,VALID,420.281,VALID,24.361,VALID,74.0,VALID,2.268,
2018-05-08, 08:26:06,VALID,918.097,VALID,0.0,VALID,76.254,VALID,419.162,VALID,24.32,VALID,84.0,VALID,1.531,
2018-05-08, 08:27:06,VALID,918.086,VALID,0.0,VALID,77.009,VALID,422.589,VALID,24.29,VALID,131.0,VALID,0.665,
2018-05-08, 08:28:06,VALID,918.091,VALID,0.0,VALID,76.43,VALID,414.458,VALID,24.388,VALID,125.0,VALID,1.264,
2018-05-08, 08:29:06,VALID,918.116,VALID,0.0,VALID,76.242,VALID,415.821,VALID,24.39,VALID,108.0,VALID,2.438,
2018-05-08, 08:30:06,VALID,918.125,VALID,0.0,VALID,76.713,VALID,428.303,VALID,24.324,VALID,118.0,VALID,2.471,
2018-05-08, 08:31:06,VALID,918.106,VALID,0.0,VALID,75.848,VALID,436.061,VALID,24.266,VALID,113.0,VALID,0.833,
2018-05-08, 08:32:06,VALID,918.095,VALID,0.0,VALID,76.462,VALID,443.968,VALID,24.31,VALID,123.0,VALID,0.974,
2018-05-08, 08:33:06,VALID,918.119,VALID,0.0,VALID,77.331,VALID,444.579,VALID,24.447,VALID,90.0,VALID,1.43,
2018-05-08, 08:34:06,VALID,918.137,VALID,0.0,VALID,76.798,VALID,440.449,VALID,24.566,VALID,84.0,VALID,1.955,
2018-05-08, 08:35:06,VALID,918.137,VALID,0.0,VALID,75.584,VALID,432.138,VALID,24.525,VALID,78.0,VALID,2.293,
2018-05-08, 08:36:06,VALID,918.164,VALID,0.0,VALID,74.729,VALID,428.899,VALID,24.428,VALID,74.0,VALID,2.29,
2018-05-08, 08:37:06,VALID,918.16,VALID,0.0,VALID,75.114,VALID,437.091,VALID,24.344,VALID,83.0,VALID,1.545,
2018-05-08, 08:38:06,VALID,918.148,VALID,0.0,VALID,74.793,VALID,443.658,VALID,24.346,VALID,105.0,VALID,1.549,
2018-05-08, 08:39:06,VALID,918.142,VALID,0.0,VALID,75.323,VALID,445.682,VALID,24.41,VALID,76.0,VALID,1.363,
2018-05-08, 08:40:06,VALID,918.146,VALID,0.0,VALID,76.21,VALID,429.2,VALID,24.552,VALID,58.0,VALID,1.716,
2018-05-08, 08:41:06,VALID,918.145,VALID,0.0,VALID,75.571,VALID,429.001,VALID,24.697,VALID,68.0,VALID,1.843,
2018-05-08, 08:42:06,VALID,918.143,VALID,0.0,VALID,73.98,VALID,432.048,VALID,24.773,VALID,77.0,VALID,2.42,
2018-05-08, 08:43:06,VALID,918.135,VALID,0.0,VALID,74.32,VALID,433.928,VALID,24.76,VALID,80.0,VALID,1.493,
2018-05-08, 08:44:06,VALID,918.132,VALID,0.0,VALID,73.595,VALID,445.633,VALID,24.719,VALID,90.0,VALID,3.539,
2018-05-08, 08:45:06,VALID,918.167,VALID,0.0,VALID,73.879,VALID,452.171,VALID,24.573,VALID,98.0,VALID,3.544,
2018-05-08, 08:46:06,VALID,918.154,VALID,0.0,VALID,75.747,VALID,450.466,VALID,24.433,VALID,88.0,VALID,1.091,
2018-05-08, 08:47:06,VALID,918.163,VALID,0.0,VALID,75.004,VALID,448.907,VALID,24.527,VALID,180.0,VALID,0.575,
2018-05-08, 08:48:06,VALID,918.208,VALID,0.0,VALID,74.161,VALID,445.837,VALID,24.693,VALID,96.0,VALID,1.897,
2018-05-08, 08:49:06,VALID,918.22,VALID,0.0,VALID,73.066,VALID,455.489,VALID,24.747,VALID,76.0,VALID,3.74,
2018-05-08, 08:50:06,VALID,918.212,VALID,0.0,VALID,73.168,VALID,465.68,VALID,24.621,VALID,63.0,VALID,3.323,
2018-05-08, 08:51:06,VALID,918.223,VALID,0.0,VALID,74.809,VALID,463.797,VALID,24.475,VALID,57.0,VALID,2.309,
2018-05-08, 08:52:06,VALID,918.251,VALID,0.0,VALID,74.827,VALID,460.499,VALID,24.464,VALID,64.0,VALID,1.82,
2018-05-08, 08:53:06,VALID,918.263,VALID,0.0,VALID,75.308,VALID,452.107,VALID,24.525,VALID,66.0,VALID,1.802,
2018-05-08, 08:54:06,VALID,918.311,VALID,0.0,VALID,74.944,VALID,452.402,VALID,24.635,VALID,98.0,VALID,2.343,
2018-05-08, 08:55:06,VALID,918.327,VALID,0.0,VALID,73.783,VALID,454.977,VALID,24.638,VALID,88.0,VALID,2.382,
2018-05-08, 08:56:06,VALID,918.311,VALID,0.0,VALID,72.73,VALID,461.59,VALID,24.614,VALID,94.0,VALID,4.237,
2018-05-08, 08:57:06,VALID,918.317,VALID,0.0,VALID,72.93,VALID,472.381,VALID,24.61,VALID,82.0,VALID,3.845,
2018-05-08, 08:58:06,VALID,918.304,VALID,0.0,VALID,72.815,VALID,480.191,VALID,24.535,VALID,59.0,VALID,2.501,
2018-05-08, 08:59:06,VALID,918.337,VALID,0.0,VALID,73.56,VALID,485.372,VALID,24.591,VALID,67.0,VALID,2.027,
2018-05-08, 09:00:06,VALID,918.306,VALID,0.0,VALID,73.073,VALID,489.361,VALID,24.642,VALID,94.0,VALID,1.237,
2018-05-08, 09:01:06,VALID,918.338,VALID,0.0,VALID,72.682,VALID,500.83,VALID,24.802,VALID,64.0,VALID,2.177,
2018-05-08, 09:02:06,VALID,918.333,VALID,0.0,VALID,71.494,VALID,517.607,VALID,24.872,VALID,119.0,VALID,2.838,
2018-05-08, 09:03:06,VALID,918.378,VALID,0.0,VALID,70.804,VALID,516.134,VALID,24.785,VALID,107.0,VALID,5.087,
2018-05-08, 09:04:06,VALID,918.362,VALID,0.0,VALID,71.672,VALID,507.763,VALID,24.669,VALID,68.0,VALID,3.34,
2018-05-08, 09:05:06,VALID,918.365,VALID,0.0,VALID,72.118,VALID,510.883,VALID,24.635,VALID,71.0,VALID,4.541,
2018-05-08, 09:06:06,VALID,918.358,VALID,0.0,VALID,71.464,VALID,526.686,VALID,24.599,VALID,68.0,VALID,5.877,
2018-05-08, 09:07:06,VALID,918.346,VALID,0.0,VALID,73.058,VALID,533.595,VALID,24.518,VALID,40.0,VALID,3.223,
2018-05-08, 09:08:06,VALID,918.39,VALID,0.0,VALID,74.434,VALID,543.597,VALID,24.611,VALID,51.0,VALID,2.298,
2018-05-08, 09:09:06,VALID,918.341,VALID,0.0,VALID,73.203,VALID,549.965,VALID,24.694,VALID,38.0,VALID,3.261,
2018-05-08, 09:10:06,VALID,918.364,VALID,0.0,VALID,73.446,VALID,554.595,VALID,24.692,VALID,41.0,VALID,2.424,
2018-05-08, 09:11:06,VALID,918.373,VALID,0.0,VALID,74.186,VALID,558.774,VALID,24.852,VALID,50.0,VALID,1.511,
2018-05-08, 09:12:06,VALID,918.388,VALID,0.0,VALID,72.929,VALID,553.154,VALID,25.073,VALID,90.0,VALID,1.947,
2018-05-08, 09:13:06,VALID,918.381,VALID,0.0,VALID,72.71,VALID,543.095,VALID,25.203,VALID,65.0,VALID,1.332,
2018-05-08, 09:14:06,VALID,918.382,VALID,0.0,VALID,71.607,VALID,535.183,VALID,25.276,VALID,97.0,VALID,2.788,
2018-05-08, 09:15:06,VALID,918.358,VALID,0.0,VALID,71.04,VALID,527.014,VALID,25.209,VALID,65.0,VALID,3.429,
2018-05-08, 09:16:06,VALID,918.367,VALID,0.0,VALID,71.501,VALID,542.225,VALID,25.11,VALID,71.0,VALID,2.918,
2018-05-08, 09:17:06,VALID,918.39,VALID,0.0,VALID,72.031,VALID,563.444,VALID,24.988,VALID,76.0,VALID,2.367,
2018-05-08, 09:18:06,VALID,918.367,VALID,0.0,VALID,71.67,VALID,593.341,VALID,25.01,VALID,75.0,VALID,3.028,
2018-05-08, 09:19:06,VALID,918.394,VALID,0.0,VALID,70.792,VALID,623.447,VALID,25.02,VALID,81.0,VALID,2.994,
2018-05-08, 09:20:06,VALID,918.408,VALID,0.0,VALID,73.782,VALID,621.818,VALID,25.17,VALID,71.0,VALID,2.155,
2018-05-08, 09:21:06,VALID,918.388,VALID,0.0,VALID,69.756,VALID,632.783,VALID,25.293,VALID,69.0,VALID,2.437,
2018-05-08, 09:22:06,VALID,918.359,VALID,0.0,VALID,71.569,VALID,639.287,VALID,25.381,VALID,70.0,VALID,2.462,
2018-05-08, 09:23:06,VALID,918.359,VALID,0.0,VALID,71.03,VALID,654.368,VALID,25.291,VALID,73.0,VALID,1.897,
2018-05-08, 09:24:06,VALID,918.37,VALID,0.0,VALID,71.8,VALID,681.281,VALID,25.315,VALID,63.0,VALID,3.16,
2018-05-08, 09:25:06,VALID,918.413,VALID,0.0,VALID,72.99,VALID,673.644,VALID,25.376,VALID,73.0,VALID,4.529,
2018-05-08, 09:26:06,VALID,918.375,VALID,0.0,VALID,70.643,VALID,599.134,VALID,25.154,VALID,56.0,VALID,3.986,
2018-05-08, 09:27:06,VALID,918.373,VALID,0.0,VALID,73.399,VALID,673.606,VALID,25.053,VALID,65.0,VALID,3.162,
2018-05-08, 09:28:06,VALID,918.383,VALID,0.0,VALID,72.245,VALID,682.842,VALID,25.21,VALID,83.0,VALID,3.551,
2018-05-08, 09:29:06,VALID,918.361,VALID,0.0,VALID,73.974,VALID,689.469,VALID,25.336,VALID,51.0,VALID,2.02,
2018-05-08, 09:30:06,VALID,918.384,VALID,0.0,VALID,72.787,VALID,693.983,VALID,25.587,VALID,71.0,VALID,1.985,
2018-05-08, 09:31:06,VALID,918.343,VALID,0.0,VALID,69.479,VALID,699.6,VALID,25.737,VALID,87.0,VALID,1.782,
2018-05-08, 09:32:06,VALID,918.353,VALID,0.0,VALID,70.546,VALID,695.247,VALID,25.685,VALID,64.0,VALID,3.491,
2018-05-08, 09:33:06,VALID,918.348,VALID,0.0,VALID,69.803,VALID,693.176,VALID,25.537,VALID,85.0,VALID,4.502,
2018-05-08, 09:34:06,VALID,918.307,VALID,0.0,VALID,69.981,VALID,690.047,VALID,25.307,VALID,64.0,VALID,5.557,
2018-05-08, 09:35:06,VALID,918.296,VALID,0.0,VALID,71.039,VALID,692.033,VALID,25.162,VALID,55.0,VALID,4.69,
2018-05-08, 09:36:06,VALID,918.259,VALID,0.0,VALID,71.818,VALID,692.349,VALID,25.173,VALID,40.0,VALID,4.484,
2018-05-08, 09:37:06,VALID,918.293,VALID,0.0,VALID,73.369,VALID,701.304,VALID,25.316,VALID,53.0,VALID,2.473,
2018-05-08, 09:38:06,VALID,918.28,VALID,0.0,VALID,71.861,VALID,703.546,VALID,25.485,VALID,61.0,VALID,4.348,
2018-05-08, 09:39:06,VALID,918.301,VALID,0.0,VALID,72.542,VALID,714.901,VALID,25.484,VALID,75.0,VALID,4.946,
2018-05-08, 09:40:06,VALID,918.275,VALID,0.0,VALID,71.577,VALID,721.475,VALID,25.331,VALID,67.0,VALID,5.748,
2018-05-08, 09:41:06,VALID,918.238,VALID,0.0,VALID,71.286,VALID,720.454,VALID,25.106,VALID,55.0,VALID,4.419,
2018-05-08, 09:42:06,VALID,918.252,VALID,0.0,VALID,73.2,VALID,725.989,VALID,25.083,VALID,67.0,VALID,3.745,
2018-05-08, 09:43:06,VALID,918.238,VALID,0.0,VALID,70.872,VALID,723.599,VALID,25.171,VALID,88.0,VALID,4.063,
2018-05-08, 09:44:06,VALID,918.201,VALID,0.0,VALID,72.668,VALID,728.501,VALID,25.223,VALID,67.0,VALID,3.071,
2018-05-08, 09:45:06,VALID,918.218,VALID,0.0,VALID,72.623,VALID,735.286,VALID,25.363,VALID,66.0,VALID,3.689,
2018-05-08, 09:46:06,VALID,918.187,VALID,0.0,VALID,71.781,VALID,734.032,VALID,25.365,VALID,69.0,VALID,4.235,
2018-05-08, 09:47:06,VALID,918.117,VALID,0.0,VALID,71.78,VALID,741.935,VALID,25.283,VALID,58.0,VALID,4.323,
2018-05-08, 09:48:06,VALID,918.094,VALID,0.0,VALID,73.173,VALID,743.464,VALID,25.239,VALID,66.0,VALID,1.93,
2018-05-08, 09:49:06,VALID,918.089,VALID,0.0,VALID,74.064,VALID,746.04,VALID,25.549,VALID,92.0,VALID,1.898,
2018-05-08, 09:50:06,VALID,918.061,VALID,0.0,VALID,73.812,VALID,743.029,VALID,25.965,VALID,53.0,VALID,1.044,
2018-05-08, 09:51:06,VALID,918.076,VALID,0.0,VALID,72.41,VALID,753.686,VALID,26.297,VALID,46.0,VALID,1.619,
2018-05-08, 09:52:06,VALID,918.09,VALID,0.0,VALID,69.45,VALID,751.532,VALID,26.396,VALID,66.0,VALID,2.496,
2018-05-08, 09:53:06,VALID,918.086,VALID,0.0,VALID,70.725,VALID,749.879,VALID,26.117,VALID,74.0,VALID,2.232,
2018-05-08, 09:54:06,VALID,918.08,VALID,0.0,VALID,70.908,VALID,749.876,VALID,26.009,VALID,84.0,VALID,2.685,
2018-05-08, 09:55:06,VALID,918.091,VALID,0.0,VALID,70.039,VALID,744.258,VALID,25.978,VALID,81.0,VALID,2.521,
2018-05-08, 09:56:06,VALID,918.096,VALID,0.0,VALID,70.868,VALID,718.176,VALID,26.024,VALID,82.0,VALID,3.075,
2018-05-08, 09:57:06,VALID,918.097,VALID,0.0,VALID,72.357,VALID,754.299,VALID,26.086,VALID,51.0,VALID,0.969,
2018-05-08, 09:58:06,VALID,918.125,VALID,0.0,VALID,70.397,VALID,753.38,VALID,26.282,VALID,74.0,VALID,2.821,
2018-05-08, 09:59:06,VALID,918.105,VALID,0.0,VALID,68.881,VALID,744.977,VALID,26.216,VALID,82.0,VALID,3.55,
2018-05-08, 10:00:06,VALID,918.096,VALID,0.0,VALID,69.194,VALID,742.744,VALID,26.109,VALID,71.0,VALID,2.389,
2018-05-08, 10:01:06,VALID,918.072,VALID,0.0,VALID,69.108,VALID,743.781,VALID,26.122,VALID,47.0,VALID,2.362,
2018-05-08, 10:02:06,VALID,918.081,VALID,0.0,VALID,70.975,VALID,755.839,VALID,26.047,VALID,36.0,VALID,1.917,
2018-05-08, 10:03:06,VALID,918.055,VALID,0.0,VALID,71.79,VALID,770.894,VALID,26.15,VALID,50.0,VALID,2.375,
2018-05-08, 10:04:06,VALID,918.049,VALID,0.0,VALID,69.688,VALID,769.978,VALID,26.201,VALID,38.0,VALID,4.038,
2018-05-08, 10:05:06,VALID,918.066,VALID,0.0,VALID,70.192,VALID,775.873,VALID,25.955,VALID,45.0,VALID,3.315,
2018-05-08, 10:06:06,VALID,918.103,VALID,0.0,VALID,70.909,VALID,789.448,VALID,25.92,VALID,60.0,VALID,3.257,
2018-05-08, 10:07:06,VALID,918.074,VALID,0.0,VALID,70.367,VALID,798.661,VALID,25.874,VALID,41.0,VALID,3.85,
2018-05-08, 10:08:06,VALID,918.069,VALID,0.0,VALID,71.705,VALID,799.667,VALID,25.913,VALID,35.0,VALID,3.069,
2018-05-08, 10:09:06,VALID,918.1,VALID,0.0,VALID,70.974,VALID,765.51,VALID,26.068,VALID,43.0,VALID,2.799,
2018-05-08, 10:10:06,VALID,918.094,VALID,0.0,VALID,70.733,VALID,805.391,VALID,26.169,VALID,52.0,VALID,2.646,
2018-05-08, 10:11:06,VALID,918.064,VALID,0.0,VALID,68.27,VALID,801.615,VALID,26.076,VALID,44.0,VALID,3.531,
2018-05-08, 10:12:06,VALID,918.027,VALID,0.0,VALID,70.058,VALID,809.522,VALID,25.958,VALID,26.0,VALID,3.084,
2018-05-08, 10:13:06,VALID,918.054,VALID,0.0,VALID,70.825,VALID,817.93,VALID,26.036,VALID,27.0,VALID,3.263,
2018-05-08, 10:14:06,VALID,918.063,VALID,0.0,VALID,69.847,VALID,817.057,VALID,26.035,VALID,42.0,VALID,4.626,
2018-05-08, 10:15:06,VALID,918.08,VALID,0.0,VALID,69.502,VALID,816.601,VALID,25.935,VALID,53.0,VALID,3.486,
2018-05-08, 10:16:06,VALID,918.047,VALID,0.0,VALID,69.907,VALID,823.441,VALID,25.875,VALID,32.0,VALID,2.895,
2018-05-08, 10:17:06,VALID,918.029,VALID,0.0,VALID,69.667,VALID,825.618,VALID,25.847,VALID,36.0,VALID,2.94,
2018-05-08, 10:18:06,VALID,918.047,VALID,0.0,VALID,71.797,VALID,819.961,VALID,25.925,VALID,27.0,VALID,2.466,
2018-05-08, 10:19:06,VALID,918.065,VALID,0.0,VALID,69.163,VALID,832.006,VALID,26.118,VALID,80.0,VALID,2.032,
2018-05-08, 10:20:06,VALID,918.071,VALID,0.0,VALID,68.428,VALID,840.021,VALID,26.176,VALID,73.0,VALID,1.623,
2018-05-08, 10:21:06,VALID,918.055,VALID,0.0,VALID,68.455,VALID,809.776,VALID,26.224,VALID,22.0,VALID,1.239,
2018-05-08, 10:22:06,VALID,918.032,VALID,0.0,VALID,70.112,VALID,817.741,VALID,26.478,VALID,42.0,VALID,2.36,
2018-05-08, 10:23:06,VALID,918.03,VALID,0.0,VALID,68.295,VALID,826.96,VALID,26.454,VALID,75.0,VALID,4.079,
2018-05-08, 10:24:06,VALID,918.011,VALID,0.0,VALID,67.505,VALID,827.99,VALID,26.26,VALID,93.0,VALID,2.869,
2018-05-08, 10:25:06,VALID,917.983,VALID,0.0,VALID,70.36,VALID,843.252,VALID,26.38,VALID,82.0,VALID,2.249,
2018-05-08, 10:26:06,VALID,917.988,VALID,0.0,VALID,70.746,VALID,886.416,VALID,26.62,VALID,51.0,VALID,2.277,
2018-05-08, 10:27:06,VALID,917.958,VALID,0.0,VALID,68.549,VALID,876.312,VALID,26.674,VALID,93.0,VALID,2.924,
2018-05-08, 10:28:06,VALID,917.947,VALID,0.0,VALID,69.06,VALID,839.716,VALID,26.7,VALID,68.0,VALID,2.567,
2018-05-08, 10:29:06,VALID,917.923,VALID,0.0,VALID,67.166,VALID,833.876,VALID,26.633,VALID,90.0,VALID,3.618,
2018-05-08, 10:30:06,VALID,917.882,VALID,0.0,VALID,67.91,VALID,841.999,VALID,26.497,VALID,78.0,VALID,1.38,
2018-05-08, 10:31:06,VALID,917.866,VALID,0.0,VALID,68.063,VALID,848.811,VALID,26.71,VALID,54.0,VALID,3.223,
2018-05-08, 10:32:06,VALID,917.87,VALID,0.0,VALID,66.032,VALID,844.951,VALID,26.459,VALID,33.0,VALID,1.334,
2018-05-08, 10:33:06,VALID,917.874,VALID,0.0,VALID,69.484,VALID,840.772,VALID,26.477,VALID,51.0,VALID,2.287,
2018-05-08, 10:34:06,VALID,917.87,VALID,0.0,VALID,68.39,VALID,837.447,VALID,26.546,VALID,41.0,VALID,4.038,
2018-05-08, 10:35:06,VALID,917.84,VALID,0.0,VALID,67.563,VALID,837.245,VALID,26.438,VALID,49.0,VALID,3.082,
2018-05-08, 10:36:06,VALID,917.816,VALID,0.0,VALID,69.33,VALID,829.849,VALID,26.493,VALID,39.0,VALID,3.617,